Hovedside
METAR-TAF:

METAR-TAF

Lufthavner :

Lycksele, Sverige

Lycksele lufthavn

breddegrad: 64-32-51N, lengdegrad: 018-43-03E, høyde over havet: 211 m

Gjeldene værobservasjon

Denne rapporten ble laget for 11 minutter siden, klokken 14:20 UTC
Vind 10 kt fra Øst
Temperatur -3°C
Luftfuktighet 93%
Trykk 1013 hPa
Sikt: 2900 m
lett snø

METAR: ESNL 221420Z AUTO 10010KT 2900 -SN FEW005/// OVC006/// M03/M04 Q1013 REFZUP RESHUP REDZ

Tid: 15:31 (14:31 UTC)


TAF: fraværende

Værobservasjoner og værvarsel for over 4000 flyplasser (METAR- og TAF-rapporter).

Tilgjengelige stasjoner er representert av de røde og gule prikkene på kartet.

Hold musepekeren over prikken for å se navnet på stasjonen.

Klikk så for å se værobservasjoner og -varsler.

For å forandre kartet kan du klikke på den grønne knappen med svart kryss for å zoome inn, på den grønne knappen med strek for å zoome ut, eller på de grønne pilene for å se tilstøtende kart.


METAR-TAF: